Location: Grundy Observatory
(40.0525°N, 76.3328°W)
Time: 06:52:18
(UTC-05:00)

Daily predictions for brighter satellites

Satellite Brightness Start Highest point End
(mag) Time Altitude Azimuth Time Altitude Azimuth Time Altitude Azimuth
SL-8 Rocket 4.0 17:03:49 10° N 17:10:00 82° E 17:16:10 10° S
Cosmos 1238 Rocket 2.2 17:08:00 10° S 17:10:53 55° E 17:13:57 10° NNE
Meteor 1-18 Rocket 4.3 17:06:08 10° S 17:11:41 62° E 17:17:22 10° NNE
Tiangong 1 1.3 17:09:08 10° WSW 17:12:08 60° SSE 17:15:07 10° ENE
Okean 1 3.8 17:09:46 10° SSE 17:13:35 41° E 17:17:25 10° NNE
NOSS 3-3 (A) 4.0 17:08:21 10° SSW 17:14:29 78° ESE 17:21:06 10° NE
NOSS 3-3 (C) 4.0 17:08:27 10° SSW 17:14:35 77° ESE 17:21:12 10° NE
Cosmos 2278 Rocket 2.2 17:14:30 10° SSW 17:20:09 82° ESE 17:25:50 10° NNE
CRYOSAT 2 4.4 17:16:29 10° N 17:21:25 83° E 17:26:18 10° S
Cosmos 1346 Rocket 3.4 17:18:26 10° SSE 17:21:59 34° E 17:25:32 10° NNE
AQUARIUS 4.2 17:17:50 10° SSE 17:22:15 60° ENE 17:26:41 10° N
Cosmos 2366 rocket 4.0 17:16:39 10° N 17:23:01 76° E 17:29:17 10° SSE
ATLAS 2AS CENTAUR R/B 3.3 17:15:42 10° NW 17:23:46 77° WSW 17:31:13 10° SSE
CZ-2C R/B 2.5 17:18:59 10° SSE 17:23:56 66° ENE 17:29:02 10° N
Cosmos 494 Rocket 4.1 17:22:43 10° NNW 17:27:59 83° WSW 17:33:14 10° SSE
Cosmos 2218 Rocket 4.1 17:25:38 10° N 17:31:55 82° W 17:38:05 10° S
SPOT 3 Rocket 3.5 17:27:40 10° SSE 17:32:51 80° ENE 17:38:02 10° NNW
Genesis I 3.1 17:32:00 10° NNW 17:35:55 70° ENE 17:39:48 10° SE
CZ-3B DEB 2.6 17:33:23 10° WSW 17:36:55 55° NNW 17:45:33 11° NE
Cosmos 375 4.3 17:32:38 10° NNW 17:37:03 78° NE 17:40:53 10° SE
BREEZE M DEB (TANK) 3.5 17:26:24 10° SW 17:37:24 61° SSE 17:40:11 16° ENE
SJ-7 4.4 17:33:56 10° SSE 17:38:09 78° ENE 17:42:25 10° N
COSMOS 2487 2.5 17:36:06 10° N 17:39:38 54° ENE 17:43:08 10° SSE
Cosmos 1833 Rocket 3.1 17:36:09 10° N 17:41:25 38° ENE 17:46:37 10° SE
Meteor 2-21 4.5 17:35:40 10° N 17:41:46 58° E 17:47:46 10° SSE
CZ-3A R/B 4.2 17:39:57 10° W 17:45:13 48° N 18:06:15 14° ENE
Cosmos 2082 Rocket 2.4 17:40:53 10° NNW 17:46:24 49° ENE 17:51:53 10° SE
Abrixas 3.0 17:45:01 10° NW 17:47:51 40° NNE 17:49:02 26° ENE
CZ-4 R/B 4.4 17:48:09 10° SSE 17:52:18 88° E 17:56:29 10° NNW
Cosmos 1743 3.1 17:49:43 10° N 17:53:23 39° E 17:57:00 10° SSE
Timation 2 Rocket 4.2 17:47:18 10° NNW 17:54:08 67° ENE 18:00:59 10° SE
Cosmos 1500 3.2 17:51:50 10° N 17:55:41 85° W 17:59:32 10° S
COSMO-SKYMED 1 2.7 17:51:52 10° NNE 17:56:07 51° E 18:00:20 10° S
Cosmos 1821 Rocket 4.2 17:51:04 10° N 17:56:48 42° ENE 18:02:32 10° SSE
BREEZE-M DEB (TANK) 3.8 17:57:43 10° NW 17:59:08 15° N 17:59:31 15° N
IDEFIX/ARIANE 42P 3.2 17:54:48 10° S 17:59:54 59° W 18:05:02 10° NNW
Meteor 2-14 Rocket 4.4 17:54:45 10° N 18:00:52 61° E 18:06:53 10° SSE
Meteor 1-28 Rocket 4.0 18:01:05 28° ENE 18:01:54 31° E 18:05:18 10° SSE
Cosmos 1484 Rocket 2.6 17:58:38 10° SSE 18:02:21 64° ENE 18:06:02 10° N
Cosmos 1975 3.6 17:59:03 10° NNW 18:03:01 54° W 18:06:56 10° S
CZ-4 R/B 3.4 18:01:26 10° SSW 18:05:11 32° W 18:08:55 10° NNW
MSX 3.9 18:00:31 10° S 18:06:16 81° WSW 18:12:02 10° NNW
NOSS 2-1 (D) 3.2 18:03:49 10° SSW 18:07:37 77° ESE 18:09:43 28° NE
NOSS 2-1 (C) 3.2 18:04:30 10° SSW 18:08:19 76° ESE 18:10:22 28° NE
Cosmos 1025 Rocket 3.2 18:07:29 10° SSE 18:11:40 47° E 18:13:52 25° NNE
Cosmos 921 Rocket 2.9 18:08:37 10° SSW 18:12:52 87° WNW 18:16:16 16° NNE
Meteor 1-13 Rocket 4.2 18:08:22 10° S 18:14:03 90° WSW 18:19:54 10° N
NOSS 7 (E) 4.5 18:12:05 10° SSW 18:15:33 53° ESE 18:15:54 50° E
ISS -0.7 18:16:47 10° NNW 18:17:57 11° N 18:17:57 11° N
Meteor 1-23 Rocket 4.4 18:12:51 10° SSE 18:18:19 49° E 18:22:05 19° NNE
YAOGAN 1 4.4 18:16:14 10° SSW 18:20:08 33° W 18:24:04 10° NNW
Nadezhda 3 Rocket 4.1 18:15:39 10° SSW 18:21:51 76° W 18:28:09 10° N
Meteor 2-9 Rocket 4.1 18:18:52 10° N 18:24:10 52° ENE 18:29:21 10° SSE
Meteor 2-4 Rocket 3.5 18:19:49 10° S 18:25:07 64° E 18:29:02 18° NNE
Meteor 2-16 Rocket 4.3 18:19:15 10° N 18:25:22 86° E 18:31:27 10° S
Cosmos 2369 Rocket 4.0 18:21:37 10° SE 18:22:49 14° SE 18:22:49 14° SE
NOSS 7 (D) 4.3 18:22:32 10° SSW 18:26:00 64° SE 18:26:00 64° SE
NOSS 2-1 (E) 3.4 18:23:07 10° SW 18:26:58 75° NW 18:28:29 38° NNE
DMSP B5D1-3 4.4 18:22:50 12° NNE 18:27:37 81° ESE 18:32:44 10° S
USA 234 4.1 18:37:48 21° NNE 18:41:42 40° NNW 18:47:42 10° W
Cosmos 1727 Rocket 4.2 18:37:30 10° SSE 18:43:15 45° E 18:43:15 45° E
Tiangong 1 3.0 18:45:24 10° W 18:47:00 26° WNW 18:47:00 26° WNW
Delta 2 Rocket 4.0 18:46:02 10° WSW 18:49:27 44° S 18:49:27 44° S
NOAA 12 4.0 18:44:46 10° SSE 18:50:03 87° WSW 18:55:20 10° NNW
Cosmos 2056 Rocket 3.6 18:51:24 10° SSW 18:56:46 78° WNW 18:58:18 48° N
FALCON 9 R/B 3.4 18:35:28 10° W 18:57:25 64° S 19:00:04 42° ESE
Cosmos 407 Rocket 4.3 18:53:59 10° NNW 18:57:09 37° N 18:57:09 37° N
NOSS 3-4 (A) 3.7 18:52:42 10° NNW 18:59:47 83° ENE 19:03:39 32° SE
Cosmos 1892 Rocket 4.2 18:55:29 10° S 18:58:33 46° S 18:58:33 46° S
NOSS 3-4 (C) 3.7 18:52:49 10° NNW 18:59:53 83° ENE 19:03:37 33° SE
METEOR-M 4.3 19:04:09 10° S 19:09:27 69° WSW 19:14:48 10° NNW
Cosmos 1934 Rocket 4.4 19:05:09 10° NNW 19:11:16 62° W 19:17:26 10° S
GEOS 3 Rocket 3.9 19:23:57 61° W 19:23:57 61° W 19:28:37 10° NW
Cosmos 1833 Rocket 4.5 19:20:22 10° NW 19:25:09 29° WSW 19:29:55 10° SSW
Cosmos 2082 Rocket 4.5 19:25:48 10° NW 19:30:05 23° W 19:34:23 10° SSW
Cosmos 2369 Rocket 4.4 20:03:19 10° SW 20:04:41 18° SW 20:04:41 18° SW
